Location: ?
(35.3436°N, 139.3168°E)
Time: 08:22:45
(UTC+00:00)

Cosmos 1092 Rocket - Pass Details

Date: 29 October 2020
Orbit: 955 x 994 km, 83.0° (Epoch: 02 December)

Event Time Altitude Azimuth Distance (km) Brightness Sun altitude
Rises 18:56:32 0° 178° (S) 3,622 7.0 -26.1°
Reaches altitude 10° 18:59:01 10° 177° (S) 2,683 6.3 -25.6°
Maximum altitude 19:05:07 72° 94° (E) 1,012 4.2 -24.4°
Drops below altitude 10° 19:11:19 10° 11° (N) 2,723 6.4 -23.1°
Sets 19:13:51 0° 9° (N) 3,680 7.1 -22.6°
